GW1567 Weather Reports


time (UTC)temp
F
wind
direction
speed
knots
gust
knots
rain 1hr
in
rain 24hr
in
rain mn
in
humidity
%
barometer
mb
20260510100307 69 7 0.0 0.0 0.00 0.00 0.00 99 1014.8
20260510095802 69 358 0.0 0.0 0.00 0.00 0.00 99 1014.7
20260510095257 69 354 0.0 0.0 0.00 0.00 0.00 99 1014.7
20260510094751 69 8 0.0 0.0 0.00 0.00 0.00 99 1014.6
20260510094246 69 8 0.0 0.0 0.00 0.00 0.00 99 1014.6
20260510093742 69 8 0.0 0.0 0.00 0.00 0.00 99 1014.4
20260510093240 69 13 0.0 0.0 0.00 0.00 0.00 99 1014.5
20260510092736 69 13 0.0 0.0 0.00 0.00 0.00 99 1014.4
20260510092232 69 20 0.0 0.0 0.00 0.00 0.00 99 1014.2
20260510091727 69 23 0.0 0.0 0.00 0.00 0.00 99 1014.5
20260510091225 69 11 0.0 0.0 0.00 0.00 0.00 99 1014.3
20260510090721 69 4 0.0 0.0 0.00 0.00 0.00 99 1014.2
20260510090218 69 4 0.0 0.0 0.00 0.00 0.00 99 1014.1
20260510085713 69 4 0.0 0.0 0.00 0.00 0.00 99 1014.2
20260510085208 69 13 0.0 0.0 0.00 0.00 0.00 99 1014.0
20260510084704 69 13 0.0 0.0 0.00 0.00 0.00 99 1013.9
20260510084202 69 18 0.0 0.0 0.00 0.00 0.00 99 1013.7
20260510083658 69 26 0.0 0.0 0.00 0.00 0.00 99 1013.9
20260510083155 69 23 0.0 0.0 0.00 0.00 0.00 99 1013.9
20260510082651 70 18 0.0 0.0 0.00 0.00 0.00 99 1013.9
20260510082147 69 11 0.0 0.0 0.00 0.00 0.00 99 1013.7
20260510081642 69 4 0.0 0.0 0.00 0.00 0.00 99 1013.6
20260510081138 69 357 0.0 0.0 0.00 0.00 0.00 99 1014.0
20260510080637 70 359 0.0 0.0 0.00 0.00 0.00 99 1013.8
20260510080134 70 8 0.0 0.0 0.00 0.00 0.00 99 1013.6
20260510075631 70 6 0.0 0.0 0.00 0.00 0.00 99 1013.7
20260510075129 69 6 0.0 0.0 0.00 0.00 0.00 99 1013.5
20260510074625 69 23 0.0 0.0 0.00 0.00 0.00 99 1013.6
20260510074121 69 19 0.0 0.0 0.00 0.00 0.00 99 1013.3
20260510073617 69 51 0.0 0.0 0.00 0.00 0.00 99 1013.5
20260510073114 69 18 0.0 0.0 0.00 0.00 0.00 99 1013.8
20260510072611 69 3 0.0 0.0 0.00 0.00 0.00 99 1013.7
20260510072107 69 359 0.0 0.0 0.00 0.00 0.00 99 1013.9
20260510071603 69 3 0.0 0.0 0.00 0.00 0.00 99 1013.9
20260510071101 69 3 0.0 0.0 0.00 0.00 0.00 99 1013.9
20260510070557 69 3 0.0 0.0 0.00 0.00 0.00 99 1013.9
20260510070055 69 17 0.0 0.0 0.00 0.00 0.00 99 1013.6
20260510065551 69 10 0.0 0.0 0.00 0.00 0.00 99 1013.6
20260510065047 69 3 0.0 0.0 0.00 0.00 0.00 99 1014.0
20260510064543 69 3 0.0 0.0 0.00 0.00 0.00 99 1013.9
20260510064040 69 3 0.0 0.0 0.00 0.00 0.00 99 1013.7
20260510063537 69 6 0.0 0.0 0.00 0.00 0.00 99 1013.8
20260510063035 69 13 0.0 0.0 0.00 0.00 0.00 99 1013.7
20260510062530 69 356 0.0 0.0 0.00 0.00 0.00 99 1013.9
20260510062025 69 10 0.0 0.0 0.00 0.00 0.00 99 1013.8
20260510061522 69 25 0.0 0.0 0.00 0.00 0.00 99 1013.8
20260510061019 69 16 0.0 0.0 0.00 0.00 0.00 99 1014.0
20260510060515 69 35 0.0 0.9 0.00 0.00 0.00 99 1014.3
20260510060011 69 356 0.0 0.0 0.00 0.00 0.00 99 1014.0
20260510055508 69 196 0.9 1.7 0.00 0.00 0.00 99 1014.1
20260510055006 69 46 0.0 0.0 0.00 0.00 0.00 99 1014.1
20260510054501 69 26 0.0 0.9 0.00 0.00 0.00 99 1013.8
20260510053956 69 50 0.9 0.9 0.00 0.00 0.00 99 1014.0
20260510053451 69 108 1.7 1.7 0.00 0.00 0.00 99 1014.1
20260510052948 69 184 1.7 1.7 0.00 0.00 0.00 99 1014.4
20260510052444 69 74 0.9 1.7 0.00 0.00 0.00 99 1014.5
20260510051941 69 148 0.9 0.9 0.00 0.00 0.00 99 1014.5
20260510051437 69 97 0.9 1.7 0.00 0.00 0.00 99 1014.5
20260510050933 69 31 0.0 0.0 0.00 0.00 0.00 99 1014.7
20260510050430 69 22 0.0 0.0 0.00 0.00 0.00 99 1014.8
20260510045927 68 20 0.0 0.0 0.00 0.00 0.00 99 1014.5
20260510045425 68 17 0.0 0.0 0.00 0.00 0.00 99 1014.6
20260510044921 68 2 0.0 0.0 0.00 0.00 0.00 99 1015.0
20260510044418 68 18 0.0 0.0 0.00 0.00 0.00 99 1014.6
20260510043915 68 45 0.0 0.9 0.00 0.00 0.00 99 1014.7
20260510043411 68 18 0.0 0.0 0.00 0.00 0.00 99 1014.9
20260510042909 68 15 0.0 0.0 0.00 0.00 0.00 99 1014.7
20260510042405 68 17 0.0 0.0 0.00 0.00 0.00 99 1014.9
20260510041901 68 10 0.0 0.0 0.00 0.00 0.00 99 1014.9
20260510041358 68 24 0.0 0.0 0.00 0.00 0.00 99 1014.9
20260510040855 68 31 0.0 0.0 0.00 0.00 0.00 99 1015.0
20260510040352 68 15 0.0 0.0 0.00 0.00 0.00 99 1015.1
20260510035848 68 24 0.0 0.0 0.00 1.49 1.49 99 1015.0
20260510035344 69 16 0.0 0.0 0.00 1.49 1.49 99 1015.0
20260510034839 69 23 0.0 0.0 0.00 1.49 1.49 99 1015.1
20260510034337 69 19 0.0 0.0 0.00 1.49 1.49 99 1015.1
20260510033834 69 18 0.0 0.9 0.00 1.49 1.49 99 1015.3
20260510033330 69 14 0.0 0.0 0.00 1.49 1.49 99 1015.1
20260510032827 69 16 0.0 0.0 0.00 1.49 1.49 99 1015.0
20260510032324 69 6 0.0 0.0 0.00 1.49 1.49 99 1015.0
20260510031819 69 25 0.0 0.0 0.00 1.49 1.49 99 1014.8
20260510031315 69 16 0.0 0.0 0.00 1.49 1.49 99 1014.9
20260510030809 69 346 0.0 0.0 0.00 1.49 1.49 99 1014.9
20260510030306 69 12 0.0 0.0 0.00 1.49 1.49 99 1014.7
20260510025803 69 12 0.0 0.0 0.00 1.49 1.49 99 1014.9
20260510025301 69 13 0.0 0.0 0.00 1.49 1.49 99 1014.9
20260510024757 69 359 0.0 0.0 0.00 1.49 1.49 99 1015.0
20260510024254 69 356 0.0 0.0 0.00 1.49 1.49 99 1015.0
20260510023750 69 311 0.9 0.9 0.00 1.49 1.49 99 1014.9
20260510023247 69 13 0.0 0.0 0.00 1.49 1.49 99 1014.7
20260510022744 69 13 0.0 0.0 0.00 1.49 1.49 99 1014.6
20260510022244 69 341 0.0 0.9 0.00 1.49 1.49 99 1014.3
20260510021743 69 14 0.0 0.0 0.00 1.49 1.49 99 1014.5
20260510021241 69 4 0.0 0.0 0.00 1.49 1.49 99 1014.4
20260510020736 69 294 0.9 1.7 0.00 1.49 1.49 99 1014.3
20260510020226 69 358 0.0 0.0 0.00 1.49 1.49 99 1014.2
20260510015722 69 16 0.0 0.0 0.00 1.49 1.49 99 1013.9
20260510015218 69 15 0.0 0.0 0.00 1.49 1.49 99 1013.9
20260510014714 69 7 0.0 0.0 0.00 1.49 1.49 99 1014.1
20260510014211 69 5 0.0 0.0 0.00 1.49 1.49 99 1014.2
20260510013711 69 4 0.0 0.0 0.00 1.49 1.49 99 1014.0
20260510013207 69 348 0.0 0.0 0.00 1.49 1.49 99 1014.0
20260510012702 69 341 0.0 0.9 0.00 1.49 1.49 99 1013.7
20260510012157 69 359 0.0 0.0 0.00 1.49 1.49 99 1013.7
20260510011652 69 19 0.0 0.0 0.00 1.49 1.49 99 1013.7
20260510011149 69 14 0.9 0.9 0.00 1.49 1.49 99 1013.9
20260510010644 69 18 0.9 0.9 0.00 1.49 1.49 99 1013.6
20260510010142 69 11 0.0 0.0 0.00 1.49 1.49 99 1013.8
20260510005638 69 314 0.0 0.0 0.00 1.49 1.49 99 1013.8
20260510005135 69 18 0.0 0.0 0.00 1.49 1.49 99 1013.6
20260510004633 69 15 0.9 0.9 0.00 1.49 1.49 99 1013.7
20260510004131 69 15 0.0 0.0 0.00 1.49 1.49 99 1013.9
20260510003628 69 341 0.0 0.9 0.00 1.49 1.49 99 1013.9
20260510003124 69 356 0.0 0.0 0.00 1.49 1.49 99 1013.5
20260510002624 69 12 0.0 0.0 0.00 1.49 1.49 99 1013.3
20260510002121 69 29 0.0 0.0 0.00 1.49 1.49 99 1013.2
20260510001618 69 29 0.0 0.0 0.00 1.49 1.49 99 1013.6
20260510001117 69 29 0.0 0.0 0.00 1.49 1.49 99 1013.6
20260510000616 69 29 0.0 0.0 0.00 1.49 1.49 99 1013.7
20260510000114 69 29 0.0 0.0 0.00 1.49 1.49 99 1013.6
20260509235610 69 29 0.0 0.0 0.00 1.49 1.49 99 1014.2
20260509235107 69 2 0.0 0.0 0.00 1.49 1.49 99 1014.1
20260509234603 69 242 0.9 0.9 0.00 1.49 1.49 99 1014.2
20260509234101 69 332 0.9 0.9 0.00 1.49 1.49 99 1013.9
20260509233558 69 40 0.9 0.9 0.07 1.49 1.49 99 1013.9
20260509233055 69 27 0.0 0.0 0.07 1.49 1.49 99 1014.0
20260509232552 69 65 0.9 0.9 0.12 1.49 1.49 99 1014.4
20260509232049 70 320 0.9 0.9 0.24 1.48 1.48 99 1014.4
20260509231545 70 9 0.9 0.9 0.12 1.46 1.46 99 1014.5
20260509231043 70 343 0.9 0.9 0.00 1.44 1.44 99 1014.9
20260509230539 70 296 0.9 1.7 0.00 1.44 1.44 99 1014.6
20260509230037 70 348 0.9 0.9 0.00 1.44 1.44 99 1014.5
20260509225532 70 328 0.9 0.9 0.00 1.44 1.44 99 1014.4
20260509225028 70 4 0.0 0.0 0.00 1.44 1.44 99 1014.2
20260509224524 70 66 0.9 0.9 0.00 1.44 1.44 99 1014.2
20260509224021 70 347 0.9 0.9 0.00 1.44 1.44 99 1014.0
20260509223517 70 355 0.0 0.9 0.00 1.44 1.44 99 1014.1
20260509223016 70 355 0.0 0.9 0.00 1.44 1.44 99 1014.1
20260509222511 70 349 0.9 0.9 0.00 1.44 1.44 99 1013.8
20260509222007 70 8 0.0 0.0 0.00 1.44 1.44 99 1013.9
20260509221503 70 13 0.0 0.0 0.00 1.44 1.44 99 1013.9
20260509220959 70 13 0.0 0.0 0.00 1.44 1.44 99 1013.9
20260509220455 70 1 0.0 0.0 0.00 1.44 1.44 99 1013.9
20260509215951 70 347 0.0 0.0 0.00 1.44 1.44 99 1013.9
20260509215447 70 8 0.0 0.0 0.00 1.44 1.44 99 1013.7
20260509214945 69 8 0.0 0.0 0.05 1.44 1.44 99 1013.5
20260509214442 69 10 0.0 0.0 0.05 1.44 1.44 99 1013.7
20260509213938 69 16 0.0 0.0 0.00 1.43 1.43 99 1013.6
20260509213434 69 22 0.0 0.0 0.00 1.43 1.43 99 1013.6
20260509212931 69 8 0.9 0.9 0.00 1.43 1.43 99 1013.5
20260509212429 69 11 0.0 0.9 0.00 1.43 1.43 99 1013.7
20260509211925 69 7 0.0 0.0 0.00 1.43 1.43 99 1013.6
20260509211420 69 15 0.0 0.0 0.00 1.43 1.43 99 1013.3
20260509210917 69 15 0.0 0.0 0.00 1.43 1.43 99 1013.4
20260509210414 69 2 0.0 0.9 0.00 1.43 1.43 99 1013.5
20260509205909 69 21 0.9 0.9 0.00 1.43 1.43 99 1013.5
20260509205404 70 23 2.6 4.3 0.00 1.43 1.43 99 1013.7
20260509204900 70 23 0.0 0.0 0.00 1.43 1.43 99 1013.6
20260509204357 70 9 0.9 0.9 0.00 1.43 1.43 99 1013.5
20260509203853 70 35 0.9 0.9 0.00 1.43 1.43 99 1013.4
20260509203349 70 11 1.7 1.7 0.00 1.43 1.43 99 1013.5
20260509202847 70 8 0.0 0.0 0.00 1.43 1.43 99 1013.4
20260509202342 70 9 0.0 0.0 0.00 1.43 1.43 99 1013.4
20260509201838 69 21 0.0 0.0 0.00 1.43 1.43 99 1013.4
20260509201334 69 11 0.0 0.9 0.00 1.43 1.43 99 1013.6
20260509200830 69 10 1.7 1.7 0.00 1.43 1.43 99 1013.5
20260509200326 69 5 0.9 0.9 0.00 1.43 1.43 99 1013.6
20260509195823 69 335 0.9 1.7 0.00 1.43 1.43 99 1013.8
20260509195322 69 22 0.9 0.9 0.00 1.43 1.43 99 1013.9
20260509194822 69 276 2.6 2.6 0.00 1.43 1.43 99 1013.7
20260509194318 70 352 2.6 2.6 0.00 1.43 1.43 99 1013.9
20260509193815 70 15 1.7 1.7 0.00 1.43 1.43 99 1013.9
20260509193315 71 346 2.6 2.6 0.07 1.43 1.43 99 1013.8
20260509192811 72 323 5.2 7.0 0.14 1.43 1.43 98 1014.2
20260509192307 72 348 0.9 0.9 0.12 1.42 1.42 98 1014.1
20260509191802 72 317 0.9 1.7 0.24 1.41 1.41 98 1013.9
20260509191259 72 338 0.9 0.9 1.44 1.40 1.40 98 1013.9
20260509190755 72 9 0.0 0.0 3.35 1.37 1.37 98 1014.1
20260509190252 73 334 4.3 5.2 4.44 1.18 1.18 98 1014.1
20260509185749 73 9 1.7 1.7 3.35 0.83 0.83 97 1014.2
20260509185245 74 272 4.3 5.2 1.49 0.39 0.39 97 1014.2
20260509184743 75 347 1.7 1.7 1.28 0.25 0.25 96 1013.7
20260509184241 77 265 0.9 1.7 0.78 0.14 0.14 94 1013.6
20260509183737 78 262 0.9 1.7 0.17 0.04 0.04 91 1013.4
20260509183232 78 325 0.9 0.9 0.00 0.01 0.01 88 1013.3
20260509182728 78 10 0.0 0.0 0.00 0.01 0.01 87 1013.5
20260509182226 78 299 2.6 2.6 0.00 0.01 0.01 87 1013.8
20260509181723 78 305 0.9 1.7 0.00 0.01 0.01 86 1013.7
20260509181220 79 9 2.6 2.6 0.00 0.01 0.01 86 1013.6
20260509180717 79 318 2.6 2.6 0.00 0.01 0.01 85 1013.6
20260509180213 80 352 1.7 1.7 0.00 0.01 0.01 84 1013.5
20260509175710 80 345 1.7 1.7 0.00 0.01 0.01 84 1013.5
20260509175206 80 192 3.5 4.3 0.00 0.01 0.01 83 1013.6
20260509174702 80 355 0.9 0.9 0.00 0.01 0.01 83 1013.7
20260509174157 79 268 3.5 4.3 0.00 0.01 0.01 85 1013.9
20260509173654 79 319 2.6 2.6 0.00 0.01 0.01 86 1013.8
20260509173150 79 333 1.7 1.7 0.00 0.01 0.01 86 1014.1
20260509172646 78 238 1.7 1.7 0.00 0.01 0.01 87 1014.0
20260509172142 78 199 2.6 2.6 0.00 0.01 0.01 87 1014.1
20260509171638 78 290 2.6 4.3 0.00 0.01 0.01 87 1014.2
20260509171134 79 262 3.5 4.3 0.00 0.01 0.01 87 1014.1
20260509170631 79 307 0.9 1.7 0.00 0.01 0.01 87 1014.2
20260509170127 79 351 1.7 1.7 0.00 0.01 0.01 86 1013.8
20260509165626 79 294 0.9 0.9 0.00 0.01 0.01 86 1013.8
20260509165122 79 282 2.6 2.6 0.00 0.01 0.01 85 1014.1
20260509164617 79 312 0.0 0.9 0.00 0.01 0.01 86 1014.1
20260509164113 78 16 0.0 0.0 0.00 0.01 0.01 87 1014.1
20260509163612 78 230 1.7 1.7 0.00 0.01 0.01 86 1014.1
20260509163107 77 6 0.0 0.0 0.00 0.01 0.01 87 1014.2
20260509162604 77 30 0.9 0.9 0.00 0.01 0.01 88 1014.2
20260509162059 77 6 0.0 0.9 0.00 0.01 0.01 89 1014.1
20260509161551 77 159 1.7 1.7 0.00 0.01 0.01 87 1014.3
20260509161051 77 43 1.7 1.7 0.00 0.01 0.01 88 1014.3
20260509160547 76 62 1.7 1.7 0.00 0.01 0.01 88 1014.3
20260509160042 76 357 0.9 0.9 0.00 0.01 0.01 89 1014.1
20260509155539 76 29 0.0 0.9 0.00 0.01 0.01 89 1014.1
20260509155035 75 36 0.9 0.9 0.00 0.01 0.01 89 1014.3
20260509154531 75 4 0.0 0.0 0.00 0.01 0.01 90 1014.5
20260509154029 75 41 0.9 1.7 0.00 0.01 0.01 91 1014.4
20260509153526 74 6 0.9 0.9 0.00 0.01 0.01 91 1014.3
20260509153023 74 313 0.9 0.9 0.00 0.01 0.01 91 1014.4
20260509152519 74 12 0.0 0.0 0.00 0.01 0.01 91 1014.0
20260509152015 74 7 0.9 0.9 0.00 0.01 0.01 92 1014.1
20260509151512 74 2 0.0 0.0 0.00 0.01 0.01 92 1014.0
20260509151010 74 5 1.7 1.7 0.00 0.01 0.01 91 1013.9
20260509150507 74 28 0.0 0.0 0.00 0.01 0.01 92 1014.1
20260509150006 74 354 0.9 0.9 0.00 0.01 0.01 92 1014.1
20260509145501 74 6 0.0 0.0 0.00 0.01 0.01 91 1014.4
20260509144956 74 14 0.0 0.0 0.00 0.01 0.01 91 1014.5
20260509144453 74 14 0.0 0.0 0.00 0.01 0.01 91 1014.6
20260509143950 74 287 0.9 0.9 0.00 0.01 0.01 91 1014.2
20260509143447 74 3 0.0 0.9 0.00 0.01 0.01 92 1014.5
20260509142944 73 316 0.9 0.9 0.00 0.01 0.01 92 1014.3
20260509142440 73 302 1.7 1.7 0.00 0.01 0.01 92 1014.4
20260509141936 72 12 0.0 0.0 0.00 0.01 0.01 94 1014.4
20260509141433 71 339 0.0 0.9 0.00 0.01 0.01 94 1014.2
20260509140930 71 101 0.9 0.9 0.00 0.01 0.01 95 1014.0
20260509140426 70 341 0.9 0.9 0.00 0.01 0.01 97 1014.5
20260509135924 70 5 0.0 0.0 0.00 0.01 0.01 98 1014.3
20260509135421 70 9 0.0 0.0 0.00 0.01 0.01 99 1014.2
20260509134919 69 22 0.0 0.9 0.00 0.01 0.01 99 1013.9
20260509134416 69 75 0.0 0.0 0.00 0.01 0.01 99 1014.2
20260509133913 69 29 0.9 0.9 0.00 0.01 0.01 99 1014.2
20260509133410 69 9 0.9 0.9 0.00 0.01 0.01 99 1014.4
20260509132908 68 7 0.0 0.0 0.00 0.01 0.01 99 1014.2
20260509132406 68 18 0.0 0.9 0.00 0.01 0.01 99 1014.1
20260509131903 68 49 0.9 0.9 0.00 0.01 0.01 99 1014.1
20260509131400 68 60 0.0 0.9 0.00 0.01 0.01 99 1013.9
20260509130856 68 304 0.9 1.7 0.00 0.01 0.01 99 1014.3
20260509130351 68 4 0.0 0.0 0.00 0.01 0.01 99 1014.2
20260509125849 68 2 0.0 0.0 0.00 0.01 0.01 99 1014.2
20260509125345 68 4 0.0 0.0 0.00 0.01 0.01 99 1014.0
20260509124841 68 13 0.0 0.0 0.00 0.01 0.01 99 1014.2
20260509124338 67 355 0.9 0.9 0.00 0.01 0.01 99 1014.1
20260509123836 67 351 0.9 0.9 0.00 0.01 0.01 99 1014.1
20260509123333 67 3 0.0 0.0 0.00 0.01 0.01 99 1014.0
20260509122829 67 288 1.7 1.7 0.00 0.01 0.01 99 1013.9
20260509122326 67 26 0.0 0.0 0.00 0.01 0.01 99 1013.8
20260509121823 67 348 0.0 0.0 0.00 0.01 0.01 99 1014.0
20260509121320 67 354 0.0 0.0 0.00 0.01 0.01 99 1013.6
20260509120818 67 352 0.0 0.0 0.00 0.01 0.01 99 1013.7
20260509120316 67 9 0.0 0.0 0.00 0.01 0.01 99 1013.6
20260509115814 67 5 0.0 0.0 0.00 0.01 0.01 99 1013.7
20260509115311 66 17 0.0 0.0 0.00 0.01 0.01 99 1013.5
20260509114809 66 3 0.0 0.9 0.00 0.01 0.01 99 1013.5
20260509114307 66 13 0.0 0.0 0.00 0.01 0.01 99 1013.3
20260509113806 66 11 0.0 0.0 0.00 0.01 0.01 99 1013.3
20260509113302 66 8 0.0 0.0 0.00 0.01 0.01 99 1013.2
20260509112759 66 3 0.0 0.9 0.00 0.01 0.01 99 1013.0
20260509112256 65 6 0.9 0.9 0.00 0.01 0.01 99 1012.7
20260509111753 65 21 0.9 0.9 0.00 0.01 0.01 99 1012.7
20260509111250 65 3 0.9 0.9 0.00 0.01 0.01 99 1012.4
20260509110747 65 55 0.9 1.7 0.00 0.01 0.01 99 1012.3
20260509110244 65 6 0.0 0.0 0.00 0.01 0.01 99 1012.3
20260509105742 65 5 0.9 0.9 0.00 0.01 0.01 99 1012.4
20260509105239 65 25 0.0 0.0 0.00 0.01 0.01 99 1012.4
20260509104736 65 357 0.0 0.9 0.00 0.01 0.01 99 1012.2
20260509104233 65 16 0.9 0.9 0.00 0.01 0.01 99 1012.2
20260509103731 65 35 1.7 2.6 0.00 0.01 0.01 99 1012.0
20260509103228 65 36 0.9 0.9 0.00 0.01 0.01 99 1012.0
20260509102726 65 262 1.7 1.7 0.00 0.01 0.01 99 1011.6
20260509102223 65 257 1.7 1.7 0.00 0.01 0.01 99 1012.0
20260509101720 65 3 0.9 0.9 0.00 0.01 0.01 99 1011.8
20260509101216 65 202 2.6 2.6 0.00 0.01 0.01 99 1012.0